Tracking 30116 objects as of 10-Feb-2025
HD Live streaming from Space Station
objects crossing your sky now

CENTISPACE-1 S15

Track CENTISPACE-1 S15 now!
10-day predictions


NORAD ID: 62584
Int'l Code: 2025-007K
Perigee: 641.5 km
Apogee: 661.0 km
Inclination: 55.0 °
Period: 97.6 minutes
Semi major axis: 7022 km
RCS: Unknown
Launch date: January 13, 2025
Source: People's Republic of China (PRC)
Launch site: Yellow Sea Launch Area, China (YSLA)
Your satellite tracking list
Your tracking list is empty




NASA's NSSDC Master Catalog

Two Line Element Set (TLE):
1 62584U 25007K   25041.56083161  .00004455  00000-0  68147-3 0  9998
2 62584  54.9831  12.1696 0013875   3.0271 357.0810 14.75340192  4193
Source of the keplerian elements: AFSPC